Location: Axtheid
(49.6213°N, 11.8205°E)
Time: 01:12:31
(UTC+00:00)

Envisat - Pass Details

Date: 19 January 2022
Orbit: 764 x 765 km, 98.2° (Epoch: 22 May)

Event Time Altitude Azimuth Distance (km) Brightness Sun altitude
Rises 05:15:47 0° 7° (N) 3,243 6.2 -16.6°
Reaches altitude 10° 05:18:17 10° 358° (N) 2,312 5.3 -16.2°
Maximum altitude 05:22:46 33° 296° (WNW) 1,278 3.6 -15.4°
Drops below altitude 10° 05:27:15 10° 234° (SW) 2,299 5.1 -14.7°
Sets 05:29:44 0° 225° (SW) 3,221 5.9 -14.4°
